Regional Weather Roundup
Issued by NWS

Home | Current Version | Previous Version | Text Only | Print | Product List | Glossary On
Versions: 1 2 3 4 5 6 7 8 9 10 11 12 13 14 15 16 17 18 19 20 21 22 23 24 25 26 27 28 29 30 31 32 33 34 35 36 37 38 39 40 41 42 43 44 45 46 47 48 49 50
000
ASUS45 KABQ 041010
RWRNM
NEW MEXICO REGIONAL WEATHER ROUNDUP
NATIONAL WEATHER SERVICE ALBUQUERQUE NM
400 AM MDT SAT JUL 04 2015

NOTE: "FAIR" MEANS FEW OR NO CLOUDS BELOW 12,000 FEET AGL WITH NO
       SIGNIFICANT WEATHER OR OBSTRUCTIONS TO VISION.

      THIS PRODUCT IS RELEASED AS TWO VERSIONS.  ONE VERSION NEAR
      THE TOP OF THE HOUR CONTAINING PRELIMINARY DATA FROM ALBUQUERQUE
      AND OTHER STATIONS.  A FINAL VERSION WITH ADDITIONAL DATA IS
      ISSUED ABOUT 10 MINUTES AFTER THE HOUR.

NMZ501-503-504-510>518-041100-
NORTHWEST PLATEAU/NORTHCENTRAL MOUNTAINS

CITY           SKY/WX    TMP DP  RH WIND       PRES   REMARKS
FARMINGTON     CLEAR     61  55  81 NE8       30.12F
LOS ALAMOS     MOCLDY    61  53  74 SW7       30.29S
SANTA FE       MOCLDY    67  52  58 SE3       30.22S
TAOS           MOCLDY    54  43  66 N7        30.28S
ANGEL FIRE     FAIR      48  47  96 CALM      30.37S

$$
NMZ402-403-502-505>509-041100-
WESTCENTRAL MOUNTAINS/SOUTHWEST MOUNTAINS

CITY           SKY/WX    TMP DP  RH WIND       PRES   REMARKS
GALLUP         CLOUDY    63  51  65 CALM      30.19S
GRANTS         PTCLDY    60  55  85 SW5       30.22F
SILVER CITY      N/A     68  59  73 N5        30.13F

$$
NMZ407-409-411-412-041100-
SOUTHERN DESERTS

CITY           SKY/WX    TMP DP  RH WIND       PRES   REMARKS
LORDSBURG      PTSUNNY   70  59  68 SE13      30.04F
DEMING         CLOUDY    69  67  93 SE5       30.05S
LAS CRUCES     CLOUDY    72  65  80 CALM      30.08S
HOLLOMAN AFB   PTCLDY    67  63  87 N7        30.04S
ALAMOGORDO     PTCLDY    72  57  60 N7        30.06S
T OR C         MOCLDY    71  60  68 SW3       30.09S

$$
NMZ519>523-041100-
CENTRAL VALLEYS/CENTRAL HIGHLANDS

CITY           SKY/WX    TMP DP  RH WIND       PRES   REMARKS
ALBUQUERQUE    MOCLDY    72  55  55 E3        30.14S
DOUBLE EAGLE   PTCLDY    63  57  81 CALM      30.18S
MORIARTY ARPT    N/A     58  54  86 NW3       30.23S
CLINES CORNERS MOCLDY    59  55  87 SE7       30.26S
BELEN          FAIR      68  56  65 SE3       30.14S
SOCORRO        FAIR      67  59  74 S5        30.11R

$$
NMZ524>526-539-540-041100-
SOUTHCENTRAL MOUNTAINS

CITY           SKY/WX    TMP DP  RH WIND       PRES   REMARKS
RUIDOSO        PTCLDY    57  55  94 SW5       30.27F

$$
NMZ527>531-041100-
NORTHEAST HIGHLANDS/NORTHEAST PLAINS

CITY           SKY/WX    TMP DP  RH WIND       PRES   REMARKS
LAS VEGAS      FOG       57  57 100 S9        30.27R VSB 3/4
RATON          CLOUDY    60  59  96 S6        30.21F
CLAYTON        MOCLDY    64  59  83 SW13      30.12S

$$
NMZ532>537-041100-
EASTCENTRAL PLAINS

CITY           SKY/WX    TMP DP  RH WIND       PRES   REMARKS
TUCUMCARI      PTCLDY    66  56  70 SW7       30.08F
CANNON AFB     MOCLDY    63  61  91 E5        30.10F
CLOVIS AIRPORT CLOUDY    68  55  64 S7          N/A

$$
NMZ028-029-538-041100-
SOUTHEAST PLAINS

CITY           SKY/WX    TMP DP  RH WIND       PRES   REMARKS
ROSWELL        PTCLDY    68  60  75 CALM      30.05F
ARTESIA        CLEAR     70  63  78 CALM      30.06S
CARLSBAD       PTCLDY    70  64  81 N5        30.02S
HOBBS          PTCLDY    66  63  88 CALM      30.07F


$$


USA.gov is the U.S. government's official web portal to all federal, state and local government web resources and services.